Regional Weather Roundup
Issued by NWS

Home | Current Version | Previous Version | Graphics & Text | Print | Product List | Glossary On
Versions: 1 2 3 4 5 6 7 8 9 10 11 12 13 14 15 16 17 18 19 20 21 22 23 24 25 26 27 28 29 30 31 32 33 34 35 36 37 38 39 40 41 42 43 44 45 46 47 48 49 50
000
ASUS43 KMPX 222310
RWRMN
WEATHER ROUNDUP FOR MINNESOTA
NATIONAL WEATHER SERVICE TWIN CITIES/CHANHASSEN MN
500 PM CST SUN JAN 22 2017


NOTE: "FAIR" INDICATES FEW OR NO CLOUDS BELOW 12,000 FEET WITH NO
SIGNIFICANT WEATHER AND/OR OBSTRUCTIONS TO VISIBILITY. N/A MEANS
CURRENT SKY AND/OR WEATHER CONDITIONS ARE NOT AVAILABLE.

MNZ060>063-068>070-230000-
   Twin Cities Metro

CITY           SKY/WX    TMP DP  RH WIND       PRES   REMARKS
TWIN CITIES    CLOUDY    39  34  82 NW7       29.74R
ST PAUL        CLOUDY    38  36  92 NW7       29.74R
CRYSTAL        CLOUDY    38  34  85 W6        29.73R
BLAINE         CLOUDY    39  39 100 W7        29.73R
LAKEVILLE      CLOUDY    36  36 100 W5        29.74R
EDEN PRAIRIE   CLOUDY    38  35  89 W6        29.73R
SOUTH ST PAUL  CLOUDY    39  37  91 W5        29.73R
LAKE ELMO      CLOUDY    37  36  93 NW5       29.73S
$$
MNZ001>005-007-008-013>017-022>024-027-028-230000-
   Northwest Minnesota

CITY           SKY/WX    TMP DP  RH WIND       PRES   REMARKS
BEMIDJI        CLOUDY    34  34  99 W3        29.73R FOG
HALLOCK        SNOW      34  34 100 CALM      29.74R VSB<1/4
ROSEAU         HAZE      36  30  80 CALM      29.72S VSB 1/4
WARROAD        CLOUDY    34  30  86 CALM      29.73R
THIEF RVR FALL LGT SNOW  30  30 100 W7        29.75S VSB 1   WCI  23
CROOKSTON      CLOUDY    32  32 100 W7        29.76S FOG     WCI  26
FOSSTON        FOG       30  30 100 CALM      29.74S VSB 1/2
DETROIT LAKES  CLOUDY    32  32 100 W5        29.75S FOG     WCI  27
MOORHEAD       CLOUDY    34  30  86 SW3       29.77S FOG
PARK RAPIDS    FOG       34  31  88 NW8       29.72S VSB 1   WCI  27
MAHNOMEN       FOG       32  32 100 W5        29.74S VSB 1/4 WCI  27
$$
MNZ006-009>011-018-025>026-230000-
   North Central Minnesota

CITY           SKY/WX    TMP DP  RH WIND       PRES   REMARKS
BAUDETTE       CLOUDY    34  33  96 CALM      29.71S
FLAG ISLAND    CLOUDY    34  32  93 S3        29.72R FOG
INTL FALLS     CLOUDY    35  34  96 CALM      29.71R FOG
WASKISH        CLOUDY    34  34 100 CALM      29.72S FOG
BIG FORK       MIX PCPN  37  36  93 CALM      29.71S
LONGVILLE      FOG       36  34  93 CALM      29.72R VSB 3/4
GRAND RAPIDS   CLOUDY    36  34  92 NW3       29.72S FOG
CRANE LAKE     CLOUDY    34  34 100 CALM      29.72S
ORR            FLURRIES  32  30  93 CALM      29.69R
COOK           LGT SNOW  34  34 100 CALM      29.71R
WALKER         CLOUDY    34  34  98 W3        29.72R FOG
$$
MNZ012-019>021-037-230000-
   Northeast Minnesota

CITY           SKY/WX    TMP DP  RH WIND       PRES   REMARKS
DULUTH         CLOUDY    36  34  92 NW5       29.69R FOG
ELY            CLOUDY    34  34 100 CALM      29.69R FOG
HIBBING        CLOUDY    34  34 100 CALM      29.70R
EVELETH        CLOUDY    35  33  92 W3        29.71R
DULUTH HARBOR  CLOUDY    37  36  93 CALM      29.72R
TWO HARBORS    CLOUDY    39  34  81 CALM      29.68R
SILVER BAY     FOG       36  36 100 CALM      29.67S VSB<1/4
GRAND MARAIS     N/A     37  35  92 CALM      29.70R
G MARAIS ARPRT CLOUDY    32  28  86 N3        29.66S FOG
$$
MNZ029>031-032-039>041-046>048-054>057-064-230000-
   West Central Minnesota

CITY           SKY/WX    TMP DP  RH WIND       PRES   REMARKS
FERGUS FALLS   CLOUDY    32  32 100 NW7       29.80S FOG     WCI  26
WHEATON        CLOUDY    39  39 100 W6        29.80S FOG
MORRIS         CLOUDY    34  32  93 NW7       29.77S FOG     WCI  28
ALEXANDRIA     FOG       32  32 100 W9        29.76R VSB 1/2 WCI  24
ELBOW LAKE     CLOUDY    31  31 100 NW5       29.77S FOG     WCI  26
WADENA         FOG       32  32 100 W6        29.73S VSB 1/4 WCI  26
GLENWOOD       FOG       30  30 100 W9        29.77R VSB 1/2 WCI  22
APPLETON       CLOUDY    34  30  86 W8        29.79R FOG     WCI  27
ORTONVILLE     CLOUDY    34  28  80 NW3       29.79R
MADISON        CLOUDY    36  36 100 NW7       29.80R
WILLMAR        CLOUDY    32  32 100 W12       29.79R FOG     WCI  23
$$
MNZ033>034-036-042>043-049>051-058-059-230000-
   Central Minnesota

CITY           SKY/WX    TMP DP  RH WIND       PRES   REMARKS
ST CLOUD       CLOUDY    36  35  96 W8        29.74R
SAUK CENTRE    CLOUDY    32  32 100 W8        29.76R FOG     WCI  25
PAYNESVILLE    CLOUDY    32  32 100 W9        29.76S FOG     WCI  24
AITKIN         CLOUDY    39  34  81 W3        29.70S
PINE RIVER     CLOUDY    36  36 100 CALM      29.76R
BRAINERD       CLOUDY    36  34  92 W5        29.73R
STAPLES        FOG       34  34 100 W6        29.73S VSB 1/2 WCI  29
LONG PRAIRIE   FOG       32  32 100 SW8       29.75R VSB 3/4 WCI  25
LITTLE FALLS   CLOUDY    36  34  93 W6        29.74R FOG
LITCHFIELD     CLOUDY    36  34  93 W8        29.76S FOG
BUFFALO        CLOUDY    37  34  91 W6        29.76R
MAPLE LAKE     CLOUDY    37  36  95 W8        29.75R
HUTCHINSON     CLOUDY    34  34 100 W12       29.77R FOG     WCI  26
$$
MNZ037-044-045-052-053-230000-
   East Central Minnesota

CITY           SKY/WX    TMP DP  RH WIND       PRES   REMARKS
PRINCETON      CLOUDY    37  36  93 W3        29.74R FOG
MORA           CLOUDY    36  34  93 NW3       29.74R
CAMBRIDGE      CLOUDY    39  37  93 W5        29.72R FOG
RUSH CITY      CLOUDY    37  36  93 W3        29.73R
MOOSE LAKE     CLOUDY    36  34  93 NW3       29.69S
HINCKLEY       CLOUDY    37  36  93 W3        29.72R
CLOQUET        CLOUDY    36  36 100 CALM      29.70R FOG
MCGREGOR       CLOUDY    36  36 100 NW3       29.72R
$$
MNZ071>073-080-081-089-090-097-098-230000-
   Southwest Minnesota

CITY           SKY/WX    TMP DP  RH WIND       PRES   REMARKS
MONTEVIDEO     CLOUDY    32  32 100 NW7       29.81R FOG     WCI  26
GRANITE FALLS  CLOUDY    34  32  93 W7        29.81S FOG     WCI  28
CANBY          CLOUDY    33  31  93 W14G21    29.81R WCI  23
MARSHALL       CLOUDY    31  29  92 NW13      29.80R FOG     WCI  21
REDWOOD FALLS  CLOUDY    33  30  88 NW13      29.79R FOG     WCI  24
OLIVIA         CLOUDY    32  32 100 W10       29.78R FOG     WCI  24
PIPESTONE      CLOUDY    30  28  93 NW10      29.78S FOG     WCI  21
WINDOM         CLOUDY    36  34  93 NW8       29.77S FOG
WORTHINGTON    CLOUDY    30  30 100 NW14      29.78S FOG     WCI  19
JACKSON        CLOUDY    34  32  93 NW10      29.77R FOG     WCI  26
TRACY          CLOUDY    32  31  96 NW12      29.80R FOG     WCI  23
SLAYTON        CLOUDY    29  29 100 W15       29.79R FOG     WCI  18
$$
MNZ065>067-074>077-082>085-091>093-230000-
   South Central Minnesota

CITY           SKY/WX    TMP DP  RH WIND       PRES   REMARKS
MANKATO        MIX PCPN  34  34 100 NW14      29.77R VSB 1/2 WCI  24
NEW ULM        FOG       34  34 100 NW8       29.78R VSB 1/2 WCI  27
ST JAMES       CLOUDY    34  34 100 NW13      29.78S FOG     WCI  25
FAIRMONT       CLOUDY    36  34  93 NW9       29.77R FOG
GLENCOE        CLOUDY    35  35 100 W9        29.75R FOG     WCI  28
OWATONNA       CLOUDY    36  34  93 W6        29.75R FOG
WASECA         CLOUDY    36  36 100 NW7       29.76R FOG
ALBERT LEA     FOG       36  36 100 CALM      29.75R VSB 3/4
$$
MNZ078>079-086>088-094>096-230000-
   Southeast Minnesota

CITY           SKY/WX    TMP DP  RH WIND       PRES   REMARKS
ROCHESTER      CLOUDY    34  34 100 NW8       29.73R FOG     WCI  27
RED WING       CLOUDY    37  36  93 W5        29.73R
STANTON        CLOUDY    37  35  90 W3        29.73R
DODGE CENTER   CLOUDY    34  34 100 CALM      29.73R FOG
WINONA         CLOUDY    36  34  93 NW5       29.73R
AUSTIN         CLOUDY    36  34  93 W5        29.74R FOG
PRESTON        CLOUDY    33  32  96 NW7       29.73R FOG     WCI  27
$$
ABBREVIATIONS USED IN REMARKS
   TC - TEMPERATURES IN CELSIUS
  WCI - WIND CHILL INDEX
   HX - HEAT INDEX
  VSB - VISIBILITY
$$



USA.gov is the U.S. government's official web portal to all federal, state and local government web resources and services.